Weather History for Perry, IA

Change the Weather History Date:

Wednesday, May 23, 2012

  Actual Average Record
Temperature  
Mean Temperature 78 °F -  
Max Temperature 93 °F 73 °F 93 °F (2012)
Min Temperature 63 °F 51 °F 32 °F (1963)
Cooling Degree Days 13    
Growing Degree Days 28 (Base 50)    
Moisture  
Dew Point 49 °F    
Average Humidity 36    
Maximum Humidity 53    
Minimum Humidity 22    
Precipitation  
Precipitation 0.00 in - - ()
Sea Level Pressure  
Sea Level Pressure 29.58 in    
Wind  
Wind Speed 18 mph (SSE)    
Max Wind Speed 36 mph    
Max Gust Speed 44 mph    
Visibility 10 miles    
Events      
Averages and records for this station are not official NWS values.
T = Trace of Precipitation, MM = Missing Value Source: NWS Daily Summary

Daily Weather History Graph

Daily Weather History Graph

Search for Another Location

Airport:

Trip Planner

Search our weather history database for the weather conditions in past years. The results will help you decide how hot, cold, wet, or windy it might be!

Date:

Astronomy

May. 23, 2012 Rise Set
Actual Time 5:49 AM CDT 8:38 PM CDT
Civil Twilight 5:16 AM CDT 9:10 PM CDT
Nautical Twilight 4:35 AM CDT 9:52 PM CDT
Astronomical Twilight 3:47 AM CDT 10:40 PM CDT
Moon 7:52 AM CDT (5/23) 10:59 PM CDT (5/23)
Length of Visible Light 15h 54m
Length of Day
14h 48m
Waxing Crescent, 7% of the Moon is Illuminated
May 23
Waxing Crescent
May 28
First Quarter
Jun 4
Full
Jun 11
Last Quarter
Jun 19
New

Hourly Weather History & Observations

Time (CDT) Temp. Heat Index Dew Point Humidity Pressure Visibility Wind Dir Wind Speed Gust Speed Precip Events Conditions
12:15 AM 66.6 °F - 43.7 °F 44% 29.76 in 10.0 mi SSE 9.2 mph - N/A   Clear
12:55 AM 65.3 °F - 44.6 °F 47% 29.75 in 10.0 mi SSE 10.4 mph - N/A   Clear
1:15 AM 65.7 °F - 44.6 °F 47% 29.74 in 10.0 mi SSE 12.7 mph - N/A   Clear
1:35 AM 65.8 °F - 44.6 °F 46% 29.73 in 10.0 mi SSE 11.5 mph - N/A   Clear
1:55 AM 66.0 °F - 44.6 °F 46% 29.73 in 10.0 mi SSE 12.7 mph - N/A   Clear
2:15 AM 65.7 °F - 45.0 °F 47% 29.72 in 10.0 mi SSE 12.7 mph - N/A   Clear
2:35 AM 66.0 °F - 44.8 °F 46% 29.71 in 10.0 mi SSE 12.7 mph - N/A   Clear
2:55 AM 65.8 °F - 44.8 °F 47% 29.71 in 10.0 mi SSE 12.7 mph - N/A   Clear
3:15 AM 65.5 °F - 45.0 °F 47% 29.70 in 10.0 mi SSE 11.5 mph - N/A   Clear
3:35 AM 65.5 °F - 45.1 °F 48% 29.70 in 10.0 mi SSE 13.8 mph - N/A   Clear
4:15 AM 65.3 °F - 45.3 °F 48% 29.69 in 10.0 mi SSE 12.7 mph - N/A   Clear
4:35 AM 65.3 °F - 45.5 °F 49% 29.69 in 10.0 mi SSE 11.5 mph - N/A   Clear
5:15 AM 63.9 °F - 46.0 °F 52% 29.69 in 10.0 mi SSE 9.2 mph - N/A   Clear
5:35 AM 63.7 °F - 46.0 °F 53% 29.69 in 10.0 mi SSE 10.4 mph - N/A   Clear
5:55 AM 64.0 °F - 46.0 °F 52% 29.69 in 10.0 mi SE 11.5 mph - N/A   Clear
6:15 AM 63.9 °F - 46.4 °F 53% 29.69 in 10.0 mi SE 10.4 mph - N/A   Clear
6:35 AM 64.4 °F - 46.6 °F 52% 29.70 in 10.0 mi SE 12.7 mph - N/A   Clear
6:55 AM 64.9 °F - 46.6 °F 51% 29.70 in 10.0 mi SE 11.5 mph - N/A   Clear
7:35 AM 67.5 °F - 45.9 °F 46% 29.68 in 10.0 mi SSE 16.1 mph - N/A   Clear
7:55 AM 69.3 °F - 45.5 °F 42% 29.68 in 10.0 mi SSE 18.4 mph - N/A   Clear
8:15 AM 70.7 °F - 44.6 °F 39% 29.68 in 10.0 mi SSE 17.3 mph 25.3 mph N/A   Clear
8:35 AM 72.1 °F - 44.2 °F 37% 29.68 in 10.0 mi SSE 17.3 mph 23.0 mph N/A   Clear
8:55 AM 73.8 °F - 43.3 °F 34% 29.66 in 10.0 mi SSE 24.2 mph - N/A   Clear
9:15 AM 75.4 °F - 43.5 °F 32% 29.65 in 10.0 mi SSE 24.2 mph 28.8 mph N/A   Clear
9:55 AM 78.8 °F - 43.9 °F 29% 29.64 in 10.0 mi South 23.0 mph 29.9 mph N/A   Clear
10:15 AM 80.1 °F - 43.9 °F 28% 29.63 in 10.0 mi SSE 24.2 mph 28.8 mph N/A   Clear
10:35 AM 81.1 °F - 44.1 °F 27% 29.62 in 10.0 mi SSE 21.9 mph 29.9 mph N/A   Clear
10:55 AM 84.0 °F - 43.9 °F 24% 29.62 in 10.0 mi South 23.0 mph 32.2 mph N/A   Clear
11:15 AM 86.0 °F - 45.0 °F 24% 29.61 in 10.0 mi SSE 25.3 mph 34.5 mph N/A   Clear
11:35 AM 86.5 °F - 46.2 °F 25% 29.60 in 10.0 mi South 27.6 mph 35.7 mph N/A   Clear
11:55 AM 87.8 °F - 47.1 °F 24% 29.59 in 10.0 mi SSE 27.6 mph 34.5 mph N/A   Clear
12:15 PM 88.7 °F - 48.2 °F 25% 29.58 in 10.0 mi South 28.8 mph 35.7 mph N/A   Clear
12:35 PM 89.1 °F - 49.1 °F 25% 29.57 in 10.0 mi SSE 28.8 mph 36.8 mph N/A   Clear
12:55 PM 89.4 °F - 49.5 °F 25% 29.56 in 10.0 mi SSE 25.3 mph 32.2 mph N/A   Clear
1:15 PM 90.7 °F - 49.3 °F 24% 29.55 in 10.0 mi SSE 29.9 mph 38.0 mph N/A   Clear
1:35 PM 91.4 °F - 49.5 °F 24% 29.54 in 10.0 mi SSE 28.8 mph 36.8 mph N/A   Clear
1:55 PM 91.6 °F - 49.6 °F 24% 29.53 in 10.0 mi SSE 31.1 mph 38.0 mph N/A   Clear
2:15 PM 91.8 °F - 49.5 °F 23% 29.52 in 10.0 mi South 32.2 mph 42.6 mph N/A   Clear
2:35 PM 92.3 °F - 49.8 °F 23% 29.51 in 10.0 mi SSE 29.9 mph 41.4 mph N/A   Clear
2:55 PM 92.8 °F - 49.8 °F 23% 29.51 in 10.0 mi SSE 27.6 mph 40.3 mph N/A   Clear
3:15 PM 92.7 °F - 49.6 °F 23% 29.49 in 10.0 mi South 35.7 mph 43.7 mph N/A   Clear
3:35 PM 93.2 °F - 49.5 °F 22% 29.48 in 10.0 mi SSE 33.4 mph 40.3 mph N/A   Clear
3:55 PM 92.5 °F - 50.2 °F 24% 29.48 in 10.0 mi SSE 35.7 mph 42.6 mph N/A   Clear
4:15 PM 93.2 °F - 49.5 °F 22% 29.48 in 10.0 mi SSE 33.4 mph 41.4 mph N/A   Clear
4:35 PM 92.5 °F - 50.2 °F 24% 29.47 in 10.0 mi SSE 31.1 mph 39.1 mph N/A   Clear
4:55 PM 91.0 °F - 50.4 °F 25% 29.47 in 10.0 mi SSE 29.9 mph 40.3 mph N/A   Clear
5:15 PM 91.9 °F - 50.5 °F 24% 29.47 in 10.0 mi SSE 28.8 mph 39.1 mph N/A   Clear
5:35 PM 90.5 °F - 50.7 °F 26% 29.48 in 10.0 mi SSE 24.2 mph 40.3 mph N/A   Clear
5:55 PM 89.2 °F - 51.4 °F 27% 29.48 in 10.0 mi SSE 26.5 mph 35.7 mph N/A   Clear
6:15 PM 89.1 °F - 51.8 °F 28% 29.47 in 10.0 mi SSE 28.8 mph 33.4 mph N/A   Clear
6:35 PM 89.6 °F - 52.2 °F 28% 29.47 in 10.0 mi SSE 25.3 mph 31.1 mph N/A   Clear
6:55 PM 89.4 °F - 52.5 °F 28% 29.48 in 10.0 mi SSE 25.3 mph 36.8 mph N/A   Clear
7:15 PM 87.8 °F 85.7 °F 53.8 °F 31% 29.48 in 10.0 mi SSE 19.6 mph 28.8 mph N/A   Clear
7:35 PM 86.9 °F 85.1 °F 54.5 °F 33% 29.48 in 10.0 mi SSE 18.4 mph 26.5 mph N/A   Clear
7:55 PM 85.8 °F 84.3 °F 55.2 °F 35% 29.47 in 10.0 mi SSE 18.4 mph 25.3 mph N/A   Clear
8:15 PM 84.4 °F 83.2 °F 55.6 °F 37% 29.49 in 10.0 mi SSE 17.3 mph 25.3 mph N/A   Clear
8:35 PM 82.9 °F 82.1 °F 55.6 °F 39% 29.49 in 10.0 mi SSE 20.7 mph - N/A   Clear
8:55 PM 82.4 °F 81.8 °F 55.6 °F 40% 29.49 in 10.0 mi SSE 18.4 mph 26.5 mph N/A   Clear
9:15 PM 81.5 °F 81.1 °F 55.6 °F 41% 29.50 in 10.0 mi SSE 18.4 mph - N/A   Clear
9:35 PM 80.6 °F 80.6 °F 56.1 °F 43% 29.51 in 10.0 mi SSE 18.4 mph 21.9 mph N/A   Clear
9:55 PM 80.2 °F 80.3 °F 55.4 °F 42% 29.51 in 10.0 mi SSE 19.6 mph - N/A   Clear
10:15 PM 79.9 °F - 55.0 °F 42% 29.52 in 10.0 mi SSE 21.9 mph 26.5 mph N/A   Clear
10:35 PM 79.7 °F - 54.9 °F 42% 29.52 in 10.0 mi SSE 18.4 mph 25.3 mph N/A   Clear
10:55 PM 79.0 °F - 54.5 °F 43% 29.52 in 10.0 mi SSE 17.3 mph 23.0 mph N/A   Clear
11:15 PM 78.6 °F - 54.7 °F 43% 29.51 in 10.0 mi SSE 17.3 mph - N/A   Clear
11:35 PM 77.9 °F - 54.7 °F 45% 29.49 in 10.0 mi SSE 17.3 mph 21.9 mph N/A   Clear
11:55 PM 77.4 °F - 54.7 °F 45% 29.46 in 10.0 mi SSE 19.6 mph - N/A   Clear